Temperature
16 16 16 16 14 13 14 15 17 19 20 22 23 22 21 21 22 21 22 22 21 20 19 19 18 17 17 17 16 16 16 16 16 16 16 15 15 15 15 14 14 14 14 14 14 14 14 14 14
16 16 16 15 13 14 15 16 18 19 21 22 22 22 21 21 22 22 22 21 21 20 19 19 18 18 17 17 16 16 16 16 16 15 15 15 15 15 14 14 14 14 14 14 14 14 14 14 13
16 15 15 13 13 14 16 17 18 20 21 22 22 22 22 22 22 22 22 21 20 20 19 19 18 18 17 17 16 16 16 16 16 15 15 15 15 14 14 14 14 14 13 13 14 14 14 14 13
15 15 15 13 14 15 16 17 18 19 21 22 21 21 22 22 22 22 22 21 20 20 19 19 18 18 17 17 16 16 16 16 15 15 15 15 14 14 14 14 14 13 13 13 13 14 14 13 13
15 15 13 14 14 16 16 18 19 19 19 21 21 20 21 22 22 22 22 21 21 20 19 19 18 17 17 16 16 16 16 15 15 15 15 15 14 14 14 14 14 13 13 13 13 13 13 13 13
15 13 13 14 15 16 17 19 19 18 19 20 20 19 21 21 21 21 21 21 20 20 19 18 18 17 17 16 16 16 15 15 15 15 15 15 14 14 14 14 13 13 13 13 13 13 13 13 13
14 12 13 14 15 16 17 19 18 18 18 20 21 19 20 20 20 20 20 20 19 19 19 18 17 17 17 16 16 15 15 15 15 15 15 14 14 14 13 13 13 13 13 13 13 13 13 13 13
15 12 14 14 15 16 17 19 19 19 18 20 20 19 19 20 19 19 19 19 19 18 18 18 17 17 16 16 16 15 15 15 15 15 14 14 14 13 13 13 13 13 13 13 13 13 13 13 13
14 12 13 14 15 16 17 17 18 19 19 19 20 20 20 20 19 18 18 17 17 17 17 17 17 17 16 16 16 15 15 15 15 14 14 14 14 13 13 13 13 13 13 13 13 13 13 13 12
14 12 13 15 16 16 16 17 17 18 17 18 19 19 19 19 18 18 18 18 17 17 17 17 17 17 16 16 15 15 15 15 14 14 14 14 14 13 13 13 13 13 12 12 12 13 13 12 12
13 12 13 15 16 16 16 16 17 17 16 17 18 18 18 18 18 18 18 18 18 18 17 17 17 16 16 16 16 15 15 15 14 14 14 14 13 13 13 13 13 12 12 12 12 12 12 12 12
13 13 14 15 16 16 16 16 16 16 17 18 18 18 18 17 17 18 18 18 18 17 17 17 17 16 16 16 16 15 15 15 14 14 14 14 13 13 13 13 13 13 13 13 12 12 12 12 12
12 13 14 15 15 15 16 15 15 16 17 18 18 18 18 18 18 18 18 18 18 17 17 17 17 16 16 16 16 15 15 15 15 14 14 14 14 14 13 13 13 13 13 13 12 12 12 12 12
13 13 13 14 15 15 15 15 15 16 17 17 17 17 18 18 18 18 17 18 18 18 17 17 17 17 16 16 16 16 15 15 15 14 14 14 14 13 13 13 13 13 13 12 12 12 12 12 12
13 12 12 13 14 14 14 14 14 17 17 17 17 17 17 17 17 18 18 18 18 18 18 17 17 16 16 16 16 16 15 15 15 15 14 14 14 13 13 13 13 13 12 12 12 12 12 11 11
12 11 11 13 13 14 14 13 14 17 16 16 16 16 17 17 17 17 18 18 18 18 18 17 17 16 16 16 16 15 15 15 15 15 14 14 14 13 13 13 13 13 12 12 12 12 11 11 11
10 10 11 12 13 13 13 12 14 16 15 15 16 16 16 16 17 17 17 17 18 17 17 17 17 16 16 16 16 15 15 15 15 15 14 14 14 13 13 13 13 13 12 12 12 11 11 11 11
10 10 11 11 12 13 12 12 13 15 15 15 15 15 16 16 16 17 17 17 17 17 17 17 17 16 16 16 15 14 14 14 14 14 14 14 13 13 13 12 12 12 12 12 11 11 11 11 11
11 10 10 11 12 12 12 12 13 14 14 13 14 15 15 15 16 16 16 17 17 17 17 17 16 16 16 15 15 14 14 14 14 14 14 14 13 13 13 12 12 12 12 12 12 11 11 11 10
10 10 10 11 12 12 11 11 12 12 13 14 14 14 15 15 15 16 16 16 16 16 16 16 16 16 16 16 15 15 15 14 14 14 14 13 13 13 12 12 12 12 12 12 11 11 11 11 10
10 10 10 10 11 11 11 10 11 12 13 14 14 14 15 15 15 15 15 15 16 16 16 16 16 16 16 16 15 15 14 13 13 13 13 13 13 13 13 12 12 12 12 12 11 11 11 11 10
10 11 11 11 10 9 10 9 10 11 12 12 12 13 14 14 14 14 15 15 15 15 15 16 16 16 16 15 15 15 14 14 14 14 14 14 13 13 13 12 12 12 12 12 11 11 11 11 10
10 11 11 10 9 8 9 8 9 10 11 12 11 13 13 14 14 14 14 14 14 14 15 15 15 15 15 15 15 15 14 14 14 14 13 13 13 13 13 12 12 12 12 12 11 11 11 11 10
11 10 10 9 8 8 9 8 9 9 11 11 11 12 13 13 13 14 14 14 14 14 14 14 15 15 15 15 14 14 14 14 14 13 13 13 13 12 12 12 12 12 12 11 11 11 11 11 10
10 9 8 8 7 8 9 9 9 11 11 11 11 12 13 13 13 13 13 13 13 14 14 14 14 14 14 14 14 14 14 14 13 13 13 13 12 12 12 12 12 12 12 11 11 11 11 10 10
9 9 8 8 7 8 9 9 10 11 11 12 12 12 12 12 12 12 13 13 13 13 13 13 13 13 13 14 14 14 14 13 13 13 13 12 12 12 12 12 12 11 11 11 11 11 10 10 10
9 8 8 8 7 7 7 8 9 11 11 10 11 11 12 12 12 12 12 12 12 12 13 13 13 13 13 13 13 13 13 13 13 13 12 12 12 12 12 11 11 11 11 11 10 10 10 10 10
9 9 7 8 7 7 7 8 9 10 10 10 10 10 11 12 12 12 12 12 12 12 12 12 12 12 12 12 12 13 13 13 13 12 12 12 12 12 11 11 11 11 11 10 10 10 10 9 9
8 8 8 7 7 6 7 8 9 10 10 9 9 10 11 11 11 11 11 11 11 11 11 11 11 12 12 12 12 12 12 12 12 12 12 12 11 11 11 11 10 10 10 10 10 10 9 9 9
8 8 7 6 6 6 6 8 10 9 9 9 9 10 11 11 11 11 11 11 11 11 11 11 11 11 11 11 11 11 11 12 12 11 11 11 11 11 11 10 10 10 10 10 9 9 9 9 9
Wind_Speed
3 2 3 3 3 0 6 7 5 4 3 4 3 3 5 4 4 4 2 10 11 14 17 20 21 20 19 19 18 18 17 17 17 16 16 15 15 14 14 14 13 13 13 12 12 13 12 12 12
1 2 3 3 3 4 7 6 7 9 6 3 2 1 2 3 3 5 6 10 15 16 17 18 21 21 20 19 19 18 18 17 17 16 16 16 15 15 14 14 13 13 12 12 12 12 12 12 12
1 2 3 2 4 8 6 5 9 8 7 4 3 1 3 4 4 7 7 14 14 13 16 18 22 21 20 20 19 19 18 18 17 16 16 16 16 15 15 14 13 13 12 12 12 12 12 12 11
2 2 2 3 10 9 7 6 4 4 5 4 1 3 3 2 5 7 11 15 15 12 14 18 23 22 21 20 20 19 19 18 17 17 16 16 16 15 15 14 14 13 12 12 12 12 12 12 11
3 3 2 7 12 8 7 8 6 5 5 4 2 3 4 5 1 9 13 15 16 13 13 18 22 22 22 21 20 20 19 18 17 17 17 17 16 15 15 15 14 14 13 13 12 12 12 12 11
2 2 4 10 11 7 7 7 5 7 7 7 2 3 4 1 5 9 11 13 14 15 13 16 22 22 21 21 20 20 19 18 17 17 17 17 16 16 15 15 15 14 14 13 13 12 11 11 11
3 3 7 8 8 8 7 5 4 5 6 7 3 3 3 2 3 6 7 9 10 11 11 12 16 19 20 21 20 19 19 18 18 17 17 17 16 16 16 16 16 15 15 14 13 12 12 11 10
4 2 6 7 8 8 5 4 4 4 7 5 2 4 5 6 3 4 5 6 8 9 10 9 11 14 15 17 19 19 19 18 18 17 17 16 16 16 16 16 16 16 15 15 14 13 12 11 10
3 3 9 9 7 6 4 4 7 5 4 4 3 5 5 4 6 6 5 4 6 8 9 9 10 10 12 14 17 18 18 18 18 17 17 16 14 14 15 15 16 16 16 15 15 14 13 11 9
3 7 12 6 4 5 7 6 7 5 7 6 7 6 1 5 7 9 9 9 9 10 10 10 11 11 10 12 12 13 14 15 15 14 15 14 13 13 14 15 17 17 17 16 15 14 13 10 7
6 9 8 8 7 6 9 10 7 6 10 8 7 6 2 4 6 9 11 11 12 11 11 11 11 11 11 8 9 8 9 10 12 14 15 13 12 11 11 11 13 14 14 12 12 11 9 8 7
6 9 9 8 7 7 9 8 8 9 13 10 9 7 6 8 9 10 11 11 9 10 12 12 12 11 11 9 8 8 8 8 8 12 15 12 8 7 7 8 9 10 10 9 8 7 8 8 9
8 8 10 11 11 11 11 11 10 12 14 9 8 7 9 10 11 11 10 10 9 10 12 13 13 13 12 11 9 9 9 9 11 12 14 14 9 8 7 8 9 10 11 9 8 7 7 7 7
5 7 10 11 12 9 11 13 8 12 9 7 7 9 9 11 11 9 8 10 11 12 12 12 14 14 13 12 11 10 10 10 11 12 14 16 12 9 8 8 8 9 11 11 10 9 7 7 6
4 7 11 9 8 6 5 11 11 13 8 8 9 9 10 10 9 10 11 12 13 13 12 12 14 14 14 14 13 11 10 11 10 11 15 16 14 12 10 9 9 10 12 11 9 8 7 6 7
3 3 6 7 5 5 3 12 13 9 8 10 10 9 10 9 9 9 9 9 10 10 11 12 12 13 14 14 13 10 10 11 10 12 14 16 16 15 11 9 10 11 11 9 8 7 7 7 7
1 3 7 8 4 3 5 11 12 10 9 12 11 10 9 9 8 8 8 8 9 9 10 11 11 13 14 14 12 11 10 12 10 11 12 15 17 16 12 10 9 11 9 9 10 8 7 7 7
4 5 6 7 5 6 9 14 16 12 10 11 11 9 9 9 9 7 6 7 8 8 9 10 10 11 11 10 8 8 9 10 10 11 12 14 15 16 13 10 9 10 9 9 9 9 8 7 7
5 7 10 10 7 7 11 16 17 14 10 10 10 9 8 8 8 6 5 4 5 6 7 9 10 10 9 8 9 10 11 10 10 11 12 15 14 15 13 11 10 11 11 11 11 9 9 8 5
7 9 10 10 6 7 11 15 14 12 9 8 8 8 7 6 6 5 5 4 4 5 7 8 10 10 10 10 11 10 10 9 9 9 11 14 14 15 14 13 11 11 10 11 11 8 7 7 7
7 8 8 8 9 5 7 10 9 8 6 5 5 6 6 6 6 5 4 4 4 5 6 7 8 9 10 10 7 5 4 4 6 8 10 13 15 15 14 14 12 12 11 11 13 11 11 9 8
7 7 7 7 6 5 2 6 8 6 7 6 6 5 4 4 4 4 3 3 3 5 5 5 7 8 8 9 9 10 10 10 12 11 11 11 13 14 15 14 14 13 11 11 12 12 10 9 8
7 6 6 7 6 6 4 5 9 5 6 7 7 6 5 4 4 4 3 3 4 4 4 4 5 6 6 8 10 12 12 11 9 8 9 11 12 13 14 14 13 13 12 12 12 12 11 10 9
3 3 4 1 1 5 6 6 8 5 6 5 5 5 5 4 4 4 4 3 4 4 4 4 4 6 6 7 9 10 12 11 9 9 10 10 9 11 13 14 13 14 12 13 13 13 13 12 11
2 3 3 3 2 6 4 5 9 9 6 5 5 4 4 3 3 4 5 5 5 5 5 4 4 6 6 7 8 9 11 12 13 12 12 10 9 10 13 14 14 13 13 13 12 13 13 14 12
3 5 4 4 5 5 4 7 8 8 4 2 2 2 2 3 3 5 5 5 5 5 5 5 5 6 6 6 7 8 9 9 10 11 10 11 11 11 11 14 14 14 14 13 13 12 13 12 14
4 5 5 3 3 5 6 7 9 4 3 2 3 4 4 4 5 6 6 6 6 6 6 6 6 6 6 6 6 7 7 8 9 10 11 10 10 9 10 12 14 14 14 14 13 12 14 13 14
5 5 3 3 3 5 6 6 5 5 5 4 3 4 5 6 6 7 7 6 6 6 6 6 5 5 6 6 6 5 6 8 8 8 10 10 10 10 10 12 13 13 14 14 14 12 12 13 13
3 3 3 3 4 4 5 7 5 4 3 3 4 5 6 7 8 8 8 7 7 6 5 5 5 5 5 5 5 5 5 6 6 7 9 10 10 10 11 12 13 14 14 14 14 14 13 15 14
6 7 6 4 6 5 5 8 5 4 4 4 7 8 8 8 8 8 7 7 6 6 6 5 5 5 5 5 5 5 5 5 6 7 8 9 10 11 11 11 12 13 14 14 15 15 14 15 15
Wind_Direction
245 102 88 68 64 79 244 244 236 257 244 230 211 155 157 180 190 219 153 144 144 154 166 169 169 168 166 163 159 157 155 155 153 150 148 147 146 145 143 141 139 136 134 134 133 129 128 127 126
148 109 72 77 137 225 251 237 230 239 236 264 280 186 157 222 201 148 142 161 152 158 165 168 170 169 168 166 163 161 159 159 158 156 154 153 152 151 150 149 147 142 140 138 137 135 134 134 133
167 142 114 124 194 213 233 230 227 245 255 259 282 284 195 206 186 177 180 155 151 159 165 169 171 172 171 170 169 167 165 163 162 162 161 160 158 157 155 153 152 149 147 144 142 140 140 140 138
98 80 84 195 234 229 226 246 254 279 288 272 229 303 277 240 192 185 152 150 152 161 165 171 173 174 174 174 173 171 169 168 167 168 168 168 165 162 160 157 155 153 151 149 148 148 147 146 144
77 110 208 242 243 245 244 256 264 277 279 276 260 245 273 318 137 141 148 154 158 162 168 173 175 177 177 177 176 174 173 172 172 172 172 172 170 168 165 162 159 160 159 157 156 156 154 153 149
91 124 208 238 248 254 254 257 265 270 275 285 259 224 257 331 128 151 158 160 162 164 169 175 178 179 180 180 179 178 177 177 177 177 177 177 176 174 172 170 166 166 166 164 164 163 162 160 155
153 180 228 241 254 260 256 253 239 260 279 270 222 202 264 266 194 158 154 152 156 162 166 175 181 181 182 183 182 181 181 182 182 182 181 181 180 180 179 178 175 173 172 171 171 171 171 170 166
161 175 245 244 245 252 261 278 255 251 266 272 186 186 231 239 191 142 136 140 151 161 168 174 177 180 183 185 185 185 185 185 186 185 183 182 182 183 183 183 183 180 178 177 177 179 180 179 178
132 210 236 234 239 261 282 289 286 274 266 285 252 221 238 180 138 131 134 138 158 172 176 177 178 178 180 184 188 187 187 189 188 188 186 183 183 183 184 185 187 186 185 184 185 186 188 187 189
168 223 235 234 242 272 287 275 282 304 294 291 307 316 326 151 155 164 173 183 184 186 187 184 184 183 180 186 187 188 190 190 189 188 186 183 182 183 184 187 189 191 190 191 191 191 192 192 190
200 228 247 253 259 274 285 285 274 269 273 258 258 271 228 200 193 191 192 194 196 191 189 189 189 187 185 188 184 186 188 188 189 187 185 182 181 184 185 186 190 193 192 191 193 192 192 191 192
238 252 255 268 273 276 272 281 281 255 257 253 240 224 208 215 215 212 207 206 201 194 196 194 192 190 192 190 190 188 189 190 192 193 188 184 184 187 187 189 189 189 187 184 187 188 194 199 205
246 268 274 273 277 266 267 266 271 267 265 269 256 235 224 223 224 227 219 209 201 201 204 198 194 194 194 192 194 193 195 195 195 193 195 191 190 193 193 194 191 192 188 185 185 190 197 205 216
254 274 287 283 273 263 258 269 265 264 272 280 255 243 237 230 229 233 231 222 211 210 209 202 198 199 195 196 199 197 197 196 195 198 198 196 196 195 194 198 196 196 194 193 192 194 198 207 212
288 301 301 279 262 253 264 275 250 257 282 279 260 250 251 246 243 234 225 220 218 215 211 206 203 201 199 200 201 201 198 197 199 201 201 200 199 197 197 200 202 200 197 194 194 199 199 208 214
320 306 287 277 263 253 229 262 263 271 277 273 267 256 253 252 244 240 232 229 224 216 211 209 209 205 204 204 203 202 201 199 202 202 202 203 202 199 197 204 207 198 194 192 195 197 199 210 212
316 274 268 283 260 269 244 264 274 283 274 271 269 259 254 255 256 249 238 229 226 219 213 209 209 206 206 207 205 204 203 203 204 203 203 205 204 201 199 207 209 196 194 197 202 201 198 206 213
248 260 270 270 281 285 271 271 283 284 269 265 265 257 249 250 253 250 244 241 231 223 216 211 210 208 206 206 206 206 208 210 207 206 206 204 205 203 202 207 207 199 198 201 202 202 202 206 207
246 262 275 275 280 286 272 277 282 283 276 262 260 254 249 252 256 257 257 255 243 231 220 215 211 209 202 200 201 204 211 212 212 211 207 204 204 203 203 208 207 205 205 206 202 199 203 211 189
249 269 274 285 287 287 284 282 276 274 265 251 246 249 251 254 268 275 276 272 252 237 225 220 216 210 204 204 206 208 209 211 214 213 210 206 205 204 205 207 208 208 209 206 203 200 202 208 189
257 251 257 273 307 301 302 296 278 278 271 268 250 246 252 251 262 280 287 283 268 254 239 227 223 218 212 209 202 200 200 204 209 215 214 211 209 207 206 208 207 207 207 212 210 204 202 211 205
263 247 253 274 309 295 328 295 284 273 281 272 267 260 250 251 256 273 289 296 276 260 256 244 229 223 218 208 200 195 204 213 216 216 215 214 210 209 209 209 207 208 210 212 212 210 209 202 210
238 255 263 262 259 279 252 243 281 280 263 263 257 253 253 254 259 271 280 281 280 271 264 256 247 232 223 216 211 207 215 221 221 218 214 215 213 212 211 210 209 210 213 214 212 211 210 210 210
247 323 320 339 147 265 233 210 277 248 237 251 260 258 259 270 279 284 295 311 308 300 296 283 262 246 230 220 218 213 220 225 222 220 218 217 218 215 213 213 212 212 214 216 215 214 212 215 216
77 65 343 328 293 252 248 225 252 251 242 226 248 264 261 263 276 290 302 309 306 305 303 299 278 258 243 232 229 222 222 224 223 222 221 219 219 219 215 214 215 216 217 217 216 216 216 216 216
200 165 186 239 248 282 289 243 255 262 256 249 255 278 297 300 290 291 291 291 291 292 288 286 279 267 254 245 244 240 228 226 229 227 227 222 222 221 218 215 216 218 218 219 218 220 220 218 220
184 207 194 196 265 269 261 274 296 288 321 340 342 348 334 318 312 304 302 305 301 296 284 275 272 272 261 250 245 247 238 231 234 232 230 227 226 224 218 220 220 220 220 220 219 224 223 221 222
183 173 135 190 248 263 272 262 255 291 316 322 322 320 308 305 306 304 300 300 297 289 286 291 285 274 265 257 248 252 244 240 237 235 236 230 226 224 220 224 224 222 221 221 221 226 225 224 225
186 188 190 202 214 223 268 264 236 247 278 308 311 308 302 301 301 298 297 297 300 300 291 288 291 293 286 276 267 267 262 252 243 239 239 239 233 226 225 225 226 223 223 222 223 227 224 225 228
205 203 181 204 244 225 251 268 262 257 282 303 308 308 308 306 304 303 303 309 312 309 304 296 295 298 294 285 283 280 276 272 257 249 244 242 240 231 227 228 229 227 224 222 223 227 225 225 228
Height
1507 1508 1509 1511 1513 1518 1516 1505 1496 1491 1488 1485 1484 1483 1483 1484 1487 1490 1485 1483 1484 1485 1487 1489 1492 1494 1496 1498 1500 1501 1503 1504 1505 1507 1508 1509 1510 1511 1512 1513 1514 1515 1516 1517 1517 1518 1518 1519 1520
1506 1508 1510 1510 1515 1520 1512 1499 1493 1487 1484 1483 1482 1482 1481 1481 1481 1481 1481 1482 1484 1485 1487 1488 1490 1493 1495 1497 1499 1500 1502 1503 1505 1506 1507 1508 1509 1510 1511 1512 1513 1514 1515 1516 1517 1517 1518 1519 1519
1506 1507 1509 1509 1512 1511 1503 1492 1488 1484 1483 1483 1482 1480 1480 1479 1479 1479 1480 1481 1483 1484 1486 1487 1489 1491 1494 1496 1497 1499 1501 1502 1503 1505 1506 1507 1508 1509 1510 1512 1512 1513 1514 1515 1516 1517 1517 1518 1519
1505 1507 1507 1509 1505 1498 1492 1487 1485 1484 1482 1481 1481 1481 1480 1480 1479 1479 1479 1480 1481 1483 1485 1486 1488 1490 1492 1494 1496 1498 1499 1501 1502 1504 1505 1506 1507 1508 1509 1510 1511 1512 1513 1514 1515 1516 1517 1517 1518
1503 1504 1507 1506 1499 1492 1487 1485 1484 1483 1482 1480 1481 1480 1478 1478 1478 1478 1478 1479 1480 1481 1483 1485 1487 1489 1491 1493 1495 1496 1498 1499 1501 1502 1503 1505 1506 1507 1508 1509 1510 1511 1512 1513 1514 1515 1516 1517 1518
1502 1502 1507 1503 1495 1489 1485 1484 1484 1482 1480 1479 1479 1478 1477 1477 1476 1477 1477 1478 1479 1480 1482 1484 1486 1488 1490 1492 1493 1495 1496 1498 1499 1501 1502 1503 1504 1505 1506 1507 1508 1510 1511 1512 1513 1514 1515 1516 1517
1501 1502 1501 1497 1493 1488 1483 1482 1482 1481 1480 1478 1477 1477 1475 1475 1475 1476 1476 1477 1478 1479 1481 1482 1484 1486 1488 1490 1492 1493 1495 1496 1497 1499 1500 1501 1503 1504 1505 1506 1507 1508 1509 1510 1512 1513 1514 1515 1516
1497 1500 1497 1495 1491 1486 1482 1481 1480 1479 1478 1476 1476 1475 1473 1473 1474 1475 1476 1476 1477 1478 1479 1481 1482 1484 1486 1488 1490 1492 1493 1494 1496 1497 1498 1499 1501 1502 1503 1504 1505 1506 1508 1509 1510 1512 1513 1514 1515
1495 1500 1496 1491 1488 1484 1480 1480 1478 1477 1476 1474 1473 1473 1472 1471 1472 1473 1474 1475 1475 1476 1477 1479 1480 1482 1484 1486 1488 1489 1491 1492 1494 1495 1496 1497 1498 1500 1501 1502 1503 1505 1506 1507 1509 1510 1511 1513 1514
1493 1495 1488 1484 1483 1481 1479 1478 1476 1475 1472 1471 1469 1469 1469 1469 1469 1469 1470 1471 1472 1473 1475 1476 1478 1479 1481 1483 1484 1486 1488 1489 1491 1492 1493 1495 1496 1497 1498 1500 1501 1502 1503 1505 1507 1508 1510 1511 1512
1489 1488 1483 1481 1480 1480 1478 1475 1474 1474 1470 1468 1467 1466 1466 1466 1466 1466 1466 1467 1468 1470 1472 1473 1475 1477 1478 1479 1481 1482 1484 1486 1487 1489 1491 1492 1493 1494 1496 1497 1498 1500 1501 1502 1504 1506 1507 1508 1510
1486 1482 1481 1478 1478 1477 1475 1473 1471 1470 1466 1465 1465 1464 1463 1463 1463 1463 1463 1464 1465 1467 1468 1470 1472 1473 1474 1476 1477 1478 1480 1482 1483 1485 1487 1488 1490 1491 1492 1494 1495 1497 1498 1499 1501 1502 1504 1506 1507
1484 1481 1478 1477 1475 1474 1472 1470 1469 1464 1462 1462 1461 1460 1459 1460 1459 1460 1460 1461 1462 1463 1464 1466 1468 1469 1471 1472 1473 1474 1476 1478 1480 1482 1483 1484 1486 1487 1489 1490 1492 1493 1494 1496 1497 1499 1501 1503 1504
1480 1479 1476 1473 1471 1470 1469 1466 1466 1460 1459 1459 1458 1457 1456 1456 1456 1456 1457 1457 1458 1459 1460 1462 1463 1464 1466 1467 1469 1470 1472 1474 1475 1477 1479 1480 1482 1483 1485 1486 1487 1489 1491 1492 1494 1496 1498 1499 1501
1479 1478 1474 1470 1468 1466 1467 1465 1460 1456 1457 1455 1454 1454 1453 1453 1453 1452 1452 1452 1453 1454 1456 1457 1458 1460 1461 1462 1464 1466 1467 1469 1471 1472 1474 1476 1477 1479 1481 1482 1483 1485 1487 1489 1491 1493 1494 1495 1497
1478 1479 1479 1469 1466 1464 1469 1465 1455 1454 1454 1452 1450 1450 1449 1448 1448 1448 1448 1448 1448 1449 1450 1451 1453 1454 1456 1457 1459 1461 1462 1464 1465 1467 1469 1471 1473 1475 1476 1477 1479 1481 1483 1484 1486 1488 1490 1491 1492
1481 1484 1479 1471 1464 1464 1465 1461 1452 1450 1450 1447 1446 1444 1444 1443 1443 1444 1444 1444 1444 1444 1445 1446 1447 1448 1450 1452 1454 1456 1457 1459 1460 1462 1464 1465 1467 1469 1471 1473 1474 1476 1478 1480 1482 1483 1485 1486 1488
1483 1482 1477 1473 1465 1463 1463 1457 1448 1445 1445 1442 1441 1440 1439 1438 1438 1439 1439 1439 1439 1440 1440 1441 1442 1443 1445 1447 1449 1451 1452 1453 1454 1456 1457 1460 1462 1464 1466 1468 1470 1472 1473 1474 1476 1478 1480 1482 1484
1477 1478 1476 1470 1463 1463 1459 1452 1445 1440 1439 1438 1436 1435 1435 1434 1434 1435 1435 1435 1435 1435 1435 1436 1437 1438 1440 1441 1442 1444 1445 1446 1448 1449 1451 1454 1456 1458 1460 1462 1464 1466 1467 1468 1470 1473 1475 1477 1480
1476 1476 1474 1467 1461 1460 1456 1449 1441 1436 1435 1433 1432 1431 1430 1430 1430 1430 1430 1430 1430 1430 1430 1431 1431 1432 1434 1434 1436 1437 1439 1440 1442 1443 1445 1447 1449 1451 1453 1455 1457 1459 1461 1463 1465 1467 1469 1471 1474
1473 1473 1471 1468 1462 1458 1457 1450 1441 1434 1432 1430 1429 1428 1428 1427 1426 1426 1426 1426 1426 1426 1426 1426 1426 1427 1428 1429 1431 1433 1434 1436 1437 1438 1439 1440 1443 1445 1447 1449 1451 1453 1455 1456 1458 1461 1462 1464 1467
1471 1465 1465 1464 1467 1467 1462 1463 1444 1436 1431 1428 1427 1426 1425 1425 1424 1424 1423 1422 1422 1422 1422 1421 1422 1422 1422 1424 1425 1425 1426 1427 1428 1430 1431 1433 1436 1438 1440 1442 1444 1446 1448 1449 1452 1454 1456 1458 1459
1465 1461 1462 1462 1465 1468 1464 1467 1448 1437 1432 1427 1425 1423 1422 1422 1421 1421 1420 1420 1419 1418 1418 1417 1417 1417 1418 1418 1419 1419 1420 1421 1423 1424 1425 1427 1429 1430 1433 1435 1437 1439 1441 1443 1445 1447 1449 1451 1452
1460 1462 1462 1464 1468 1471 1460 1464 1450 1438 1429 1424 1422 1420 1419 1419 1419 1418 1418 1417 1416 1415 1414 1413 1412 1412 1412 1412 1413 1414 1414 1416 1417 1417 1418 1420 1422 1423 1425 1428 1430 1431 1433 1435 1437 1439 1441 1443 1444
1462 1470 1476 1475 1475 1468 1455 1456 1445 1427 1423 1421 1420 1418 1418 1417 1417 1416 1415 1414 1412 1411 1410 1409 1409 1408 1407 1407 1407 1407 1408 1409 1410 1411 1412 1412 1414 1415 1417 1419 1421 1423 1425 1427 1430 1432 1433 1435 1436
1463 1467 1476 1479 1476 1467 1455 1452 1436 1422 1419 1418 1417 1416 1416 1415 1414 1414 1413 1411 1410 1408 1407 1406 1405 1404 1403 1402 1402 1402 1402 1403 1404 1405 1405 1406 1407 1408 1410 1411 1413 1415 1417 1420 1422 1423 1425 1427 1428
1462 1464 1464 1471 1470 1471 1459 1446 1432 1419 1418 1417 1416 1415 1414 1414 1412 1411 1410 1408 1407 1405 1403 1402 1400 1399 1398 1398 1397 1396 1397 1397 1397 1398 1399 1399 1400 1402 1403 1404 1405 1407 1409 1412 1413 1414 1416 1418 1419
1456 1459 1466 1468 1472 1470 1459 1450 1438 1424 1420 1418 1416 1415 1414 1413 1411 1410 1408 1405 1403 1402 1400 1398 1396 1395 1394 1393 1392 1391 1390 1390 1390 1391 1391 1392 1393 1394 1395 1396 1398 1399 1401 1403 1405 1406 1407 1409 1410
1458 1460 1461 1465 1466 1468 1461 1446 1425 1422 1419 1418 1416 1414 1413 1411 1409 1407 1404 1402 1400 1398 1396 1394 1392 1390 1389 1388 1386 1385 1384 1384 1384 1383 1383 1384 1385 1387 1387 1388 1389 1391 1392 1394 1396 1397 1399 1400 1402
1453 1455 1459 1466 1465 1462 1460 1442 1420 1419 1417 1417 1415 1414 1411 1409 1407 1404 1401 1398 1396 1393 1392 1389 1387 1385 1384 1383 1381 1380 1379 1378 1377 1376 1376 1377 1378 1378 1379 1380 1381 1382 1383 1385 1386 1388 1390 1391 1392